Location: Fontevrault
(47.1823°N, 0.0493°E)
Time: 08:38:04
(UTC+00:00)

Cosmos 292 Rocket - Pass Details

Date: 16 June 2021
Orbit: 674 x 693 km, 74.0° (Epoch: 02 August)

Event Time Altitude Azimuth Distance (km) Brightness Sun altitude
Rises 20:43:00 0° 193° (SSW) 3,051 6.8 -6.6°
Reaches altitude 10° 20:45:19 10° 190° (S) 2,137 6.0 -6.9°
Maximum altitude 20:50:06 68° 109° (ESE) 745 3.8 -7.4°
Drops below altitude 10° 20:54:53 10° 27° (NNE) 2,142 6.6 -8.0°
Sets 20:57:12 0° 25° (NNE) 3,059 7.5 -8.2°
